Home   Weather   Mysen   Past weeks

Flag for Norway Past Weather in Mysen, Norway — Yesterday and Last 2 Weeks

Now
40 °F

Overcast.


Feels Like: 36 °F
Forecast: 32 / 40 °F
Wind: 6 mph from North

Location: Rygge

Current Time: Apr 24, 2017 at 3:41:59 pm

Latest Report: Apr 24, 2017 at 2:00 pm


Visibility: 28 mi

Pressure: 29.29 "Hg

Humidity: 82%

Dew Point: 35 °F

Location of MysenLocation

Past Weather in Mysen — Graph

°F

Mysen Temperature Yesterday

Maximum temperature yesterday: 50 °F (at 3:00 pm)
Minimum temperature yesterday: 37 °F (at 6:00 am)
Average temperature yesterday: 43 °F

High & Low Weather Summary for the Past Weeks

 TemperatureHumidityPressure
High56 °F (Apr 10, 4:00 pm)98% (Apr 9, 10:00 pm)30.56 "Hg (Apr 9, 10:00 pm)
Low24 °F (Apr 16, 6:00 am)22% (Apr 22, 2:00 pm)29.29 "Hg (Apr 24, 11:00 am)
Average41 °F65%29.88 "Hg
* Reported Apr 9 2:00 pm — Apr 24 2:00 pm, Mysen, Weather by CustomWeather, © 2017

Note: Actual official high and low records may vary slightly from our data, if they occured in-between our weather recording intervals... More about our weather records

Advertising

Mysen Weather History for the Previous 24 Hours

Scroll right to see more
 ConditionsComfort  
Time TempWeatherWind HumidityBarometerVisibility
2:00 pm
Mon, Apr 24
40 °FOvercast.6 mph82%29.29 "Hg28 mi
1:00 pm39 °FLow clouds.6 mph88%29.29 "Hg31 mi
12:00 pm40 °FRain showers. Overcast.2 mph95%29.29 "Hg4 mi
11:00 am36 °FRain. Low clouds.2 mph96%29.29 "Hg3 mi
10:00 am37 °FLight rain. Low clouds.7 mph96%29.32 "Hg3 mi
9:00 am37 °FLight rain. Low clouds.10 mph95%29.35 "Hg3 mi
8:00 am37 °FRain. Low clouds.9 mph93%29.41 "Hg3 mi
7:00 am38 °FLight rain. Low clouds.7 mph94%29.47 "Hg6 mi
6:00 am37 °FLight rain. Low clouds.8 mph93%29.54 "Hg7 mi
5:00 am38 °FLight rain. Low clouds.6 mph92%29.60 "Hg9 mi
4:00 am38 °FLight rain. Overcast.5 mph87%29.67 "Hg9 mi
3:00 am40 °FDrizzle. Overcast.6 mph70%29.71 "Hg25 mi
2:00 am42 °FPassing clouds.3 mph50%29.75 "Hg31 mi
1:00 am40 °FClear.2 mph48%29.78 "Hg31 mi
12:00 am40 °FPassing clouds.2 mph44%29.80 "Hg19 mi
11:00 pm
Sun, Apr 23
41 °FClear.3 mph44%29.81 "Hg31 mi
10:00 pm41 °FQuite cool.3 mph43%29.83 "HgN/A
9:00 pm43 °FClear.6 mph38%29.83 "Hg31 mi
8:00 pm44 °FQuite cool.3 mph46%29.83 "Hg31 mi
7:00 pm46 °FPartly sunny.5 mph42%29.83 "Hg31 mi
6:00 pm45 °FScattered clouds.5 mph42%29.83 "Hg31 mi
5:00 pm49 °FPassing clouds.5 mph30%29.84 "Hg28 mi
4:00 pm49 °FScattered clouds.6 mph29%29.85 "Hg25 mi
3:00 pm50 °FPassing clouds.3 mph26%29.85 "Hg25 mi
Weather by CustomWeather, © 2017

See weather overviewHow to use our weather pages